[[{"header":{"parameterUnit":"m.s-1","parameterCategory":1,"la1":30.2991,"la2":30.254,"lo1":-89.0895,"lo2":-89.0444,"dy":0.0017,"dx":0.0017,"nx":28,"ny":28,"refTime":"2023-10-21T03:00:00:Z","depth":0,"parameterNumber":2,"parameterNumberName":"U-component_of_WINDS"},"data":[0,0,0,0,0,0,0,0,0,0,0,0,0,0,0,0,0,0,0,0,0,0,0,0,0,0,0,0,0,0,0,0,0,0,0,0,0,0,0,0,0,0,0,0,0,0,0,0,0,0,0,0,0,0,0,0,0,0,-0.2189,-0.2188,0,-0.2108,-0.2107,-0.2106,-0.2059,-0.2059,-0.2059,-0.2059,-0.1976,-0.1974,-0.1972,0,0,0,0,0,0,0,0,0,0,0,0,0,-0.2302,-0.23,-0.2189,-0.2188,-0.2187,-0.2108,-0.2107,-0.2106,-0.2059,-0.2059,-0.2059,-0.2059,-0.1977,-0.1974,-0.1972,0,0,0,0,0,0,0,0,0,0,0,0,0,-0.224,-0.23,-0.2189,-0.2154,-0.215,-0.2108,-0.2107,-0.2105,-0.2059,-0.2059,-0.2059,-0.2059,-0.1978,-0.1975,-0.1972,-0.1958,0,0,-0.1962,-0.1961,0,0,0,0,0,0,0,0,-0.2244,-0.2236,-0.216,-0.2156,-0.2152,-0.2093,-0.2117,-0.2056,-0.206,-0.2094,-0.2059,-0.2059,-0.2015,-0.2009,-0.1995,-0.1954,-0.1951,-0.1962,-0.196,-0.1959,-0.1958,0,0,0,0,0,0,0,-0.2248,-0.2239,-0.2157,-0.2159,-0.2154,-0.2142,-0.2133,-0.2105,-0.2057,-0.2091,-0.2087,-0.2078,-0.2013,-0.1998,-0.1992,-0.1949,-0.1962,-0.1959,-0.1957,-0.1956,-0.1893,-0.1893,0,0,0,0,0,0,-0.2258,-0.2243,-0.2159,-0.2154,-0.2198,-0.214,-0.213,-0.2112,-0.2057,-0.2049,-0.2079,-0.2077,-0.2003,-0.1996,-0.1989,-0.1969,-0.1959,-0.1956,-0.1954,-0.1893,-0.1893,-0.1893,0,0,0,0,0,0,-0.2261,-0.2251,-0.2162,-0.2198,-0.2186,-0.2139,-0.2119,-0.2111,-0.2096,-0.2048,-0.2039,-0.2072,-0.2003,-0.1994,-0.1966,-0.1966,-0.1955,-0.1952,-0.1893,-0.1893,-0.1893,-0.193,0,0,0,0,0,0,-0.2264,-0.2252,-0.2247,-0.2198,-0.2184,-0.2141,-0.2119,-0.211,-0.209,-0.2087,-0.2039,-0.2031,-0.2002,-0.1971,-0.1963,-0.1961,-0.1949,-0.1893,-0.1893,-0.1893,-0.1928,-0.1931,-0.1934,0,0,0,0,0,-0.2268,-0.226,-0.2247,-0.2237,-0.2176,-0.2141,-0.2133,-0.2099,-0.2091,-0.2085,-0.2054,-0.2033,-0.1967,-0.1968,-0.1959,-0.1957,-0.1893,-0.1893,-0.1893,-0.1927,-0.1931,-0.1933,0,0,0,0,0,0,-0.2311,-0.2253,-0.2238,-0.2214,-0.2182,-0.2133,-0.2124,-0.2104,-0.2075,-0.2072,-0.2032,-0.2021,-0.1998,-0.1974,-0.1977,-0.194,-0.1927,-0.1926,-0.1956,-0.1959,-0.1962,-0.1968,-0.1947,0,0,0,0,0,-0.2317,-0.2293,-0.2245,-0.2228,-0.2213,-0.2172,-0.2155,-0.2132,-0.2098,-0.2085,-0.2052,-0.202,-0.1992,-0.1974,-0.1946,-0.1925,-0.1913,-0.1918,-0.1921,-0.1923,-0.1923,-0.1909,-0.191,-0.1895,-0.1895,-0.1895,0,0,-0.233,-0.2296,-0.2284,-0.2236,-0.2209,-0.2185,-0.2161,-0.2137,-0.2119,-0.2081,-0.2053,-0.2028,-0.1989,-0.1965,-0.1952,-0.1944,-0.1924,-0.1924,-0.1926,-0.1924,-0.1909,-0.1911,-0.1912,-0.1895,-0.1895,-0.1895,0,0,-0.2342,-0.2314,-0.2297,-0.227,-0.223,-0.2202,-0.2198,-0.2152,-0.2133,-0.2105,-0.2076,-0.2053,-0.2006,-0.198,-0.196,-0.1962,-0.1941,-0.1954,-0.1967,-0.1954,-0.1956,-0.1956,-0.1956,-0.1957,-0.1953,-0.1953,-0.1953,0,-0.2363,-0.2326,-0.229,-0.2268,-0.2247,-0.2212,-0.2194,-0.217,-0.2123,-0.2109,-0.2101,-0.2041,-0.2013,-0.1981,-0.1982,-0.1967,-0.1961,-0.1959,-0.1958,-0.1959,-0.1959,-0.1959,-0.1959,-0.1955,-0.1955,-0.1954,-0.1954,0,-0.2354,-0.2329,-0.232,-0.2275,-0.2253,-0.2233,-0.2194,-0.2177,-0.2156,-0.2129,-0.21,-0.2064,-0.2028,-0.2019,-0.1998,-0.1984,-0.198,-0.1966,-0.1952,-0.1963,-0.1962,-0.1961,-0.1957,-0.1957,-0.1956,-0.1956,0,0,-0.239,-0.2325,-0.2322,-0.2301,-0.2254,-0.2234,-0.2212,-0.2176,-0.2162,-0.213,-0.2111,-0.2072,-0.2058,-0.2036,-0.2011,-0.2,-0.2003,-0.1987,-0.1985,-0.199,-0.1985,-0.1996,-0.1996,-0.1989,-0.1989,-0.1988,-0.1988,0,-0.2395,-0.2354,-0.2321,-0.2292,-0.2268,-0.2234,-0.2215,-0.2183,-0.2158,-0.2134,-0.2105,-0.2078,-0.2062,-0.2048,-0.2036,-0.2005,-0.2001,-0.2005,-0.197,-0.1969,-0.198,-0.1995,-0.2007,-0.2008,-0.1987,-0.1987,-0.1987,0,-0.2394,-0.2364,-0.2333,-0.2287,-0.2276,-0.2259,-0.2224,-0.2201,-0.2165,-0.2147,-0.2122,-0.2097,-0.2072,-0.2061,-0.2026,-0.2029,-0.2013,-0.1996,-0.1995,-0.199,-0.1978,-0.1991,-0.2008,-0.2008,-0.1986,-0.1986,-0.1986,0,-0.2423,-0.2374,-0.2349,-0.2332,-0.2278,-0.2268,-0.2245,-0.2208,-0.2189,-0.2158,-0.2145,-0.2111,-0.2093,-0.2068,-0.2034,-0.2029,-0.2002,-0.1988,-0.1986,-0.1987,-0.1982,-0.1982,-0.1996,-0.1972,-0.1972,-0.1972,-0.1972,0,-0.2431,-0.2414,-0.2361,-0.2346,-0.2325,-0.2287,-0.2267,-0.2241,-0.2209,-0.2188,-0.2156,-0.2137,-0.2093,-0.2069,-0.2042,-0.2017,-0.2009,-0.1994,-0.1987,-0.1996,-0.1998,-0.1985,-0.1984,-0.1972,-0.1972,-0.1972,-0.1972,0,-0.246,-0.2424,-0.2394,-0.2346,-0.2333,-0.232,-0.2278,-0.2262,-0.2234,-0.2208,-0.2199,-0.2156,-0.2126,-0.2089,-0.2047,-0.2029,-0.2006,-0.1996,-0.2018,-0.2014,-0.2014,-0.2014,-0.2019,-0.2018,-0.1995,-0.1996,-0.1996,0,-0.2467,-0.2453,-0.2403,-0.2386,-0.2364,-0.2338,-0.2318,-0.228,-0.226,-0.2217,-0.2206,-0.2173,-0.2145,-0.2097,-0.2062,-0.2029,-0.2018,-0.2022,-0.2013,-0.2023,-0.2017,-0.2019,-0.2017,-0.2024,-0.2025,-0.2025,-0.2025,0,-0.2484,-0.2467,-0.2439,-0.2405,-0.2382,-0.2353,-0.2323,-0.2311,-0.2267,-0.2246,-0.2215,-0.2193,-0.2149,-0.2117,-0.2079,-0.2056,-0.2033,-0.2029,-0.2026,-0.2036,-0.2049,-0.2041,-0.2024,-0.2029,-0.2028,-0.2028,-0.2028,-0.2028,-0.2502,-0.2487,-0.2449,-0.2419,-0.2392,-0.2365,-0.2347,-0.2317,-0.229,-0.2251,-0.2231,-0.2199,-0.2163,-0.211,-0.2088,-0.2062,-0.2054,-0.2051,-0.205,-0.205,-0.2053,-0.2053,-0.2055,-0.2055,-0.2055,-0.2055,-0.2055,0,-0.2517,-0.2491,-0.2463,-0.2422,-0.2398,-0.2379,-0.2344,-0.2326,-0.2298,-0.2266,-0.2239,-0.2202,-0.217,-0.2132,-0.2098,-0.2085,-0.2074,-0.2077,-0.2078,-0.2072,-0.2062,-0.2067,-0.2087,-0.2087,-0.2087,-0.2087,-0.2087,-0.2087,-0.2522,-0.2496,-0.2474,-0.2434,-0.2408,-0.2376,-0.2358,-0.2333,-0.2307,-0.2267,-0.224,-0.2216,-0.2181,-0.2144,-0.2114,-0.2104,-0.2092,-0.2099,-0.2085,-0.2076,-0.2073,-0.2071,-0.2075,-0.2097,-0.2097,-0.2098,-0.2098,-0.2098]},{"header":{"parameterUnit":"m.s-1","parameterCategory":1,"la1":30.2991,"la2":30.254,"lo1":-89.0895,"lo2":-89.0444,"dy":0.0017,"dx":0.0017,"nx":28,"ny":28,"refTime":"2023-10-21T03:00:00:Z","depth":0,"parameterNumber":3,"parameterNumberName":"V-component_of_WINDS"},"data":[0,0,0,0,0,0,0,0,0,0,0,0,0,0,0,0,0,0,0,0,0,0,0,0,0,0,0,0,0,0,0,0,0,0,0,0,0,0,0,0,0,0,0,0,0,0,0,0,0,0,0,0,0,0,0,0,0,0,1.831,1.8311,0,1.832,1.832,1.832,1.8318,1.8318,1.8318,1.8318,1.8324,1.8324,1.8325,0,0,0,0,0,0,0,0,0,0,0,0,0,1.829,1.829,1.831,1.8311,1.8311,1.832,1.832,1.832,1.8318,1.8318,1.8318,1.8318,1.8324,1.8324,1.8325,0,0,0,0,0,0,0,0,0,0,0,0,0,1.8299,1.829,1.831,1.8311,1.8311,1.832,1.832,1.832,1.8318,1.8318,1.8318,1.8318,1.8324,1.8324,1.8325,1.8332,0,0,1.8326,1.8326,0,0,0,0,0,0,0,0,1.8298,1.8299,1.8311,1.8311,1.8311,1.8318,1.8315,1.8324,1.8318,1.8315,1.8318,1.8317,1.8322,1.8322,1.8325,1.8333,1.8333,1.8326,1.8326,1.8327,1.8327,0,0,0,0,0,0,0,1.8297,1.8299,1.8314,1.8311,1.8311,1.831,1.8311,1.8317,1.832,1.8316,1.8316,1.8317,1.8322,1.8324,1.8325,1.8333,1.8326,1.8327,1.8327,1.8327,1.835,1.8351,0,0,0,0,0,0,1.8297,1.8298,1.8314,1.8314,1.8304,1.8311,1.8312,1.8316,1.832,1.832,1.8317,1.8317,1.8323,1.8324,1.8325,1.8336,1.8327,1.8327,1.8327,1.835,1.835,1.8351,0,0,0,0,0,0,1.8297,1.8298,1.8313,1.8306,1.8308,1.8312,1.8316,1.8316,1.8318,1.8321,1.8321,1.8319,1.8323,1.8324,1.8331,1.8336,1.8327,1.8328,1.835,1.835,1.835,1.8357,0,0,0,0,0,0,1.8296,1.8298,1.8301,1.8307,1.8309,1.832,1.8316,1.8316,1.832,1.8319,1.8323,1.8323,1.8323,1.8331,1.8332,1.8336,1.8328,1.8349,1.835,1.835,1.8356,1.8357,1.8358,0,0,0,0,0,1.8295,1.8301,1.8302,1.8303,1.8313,1.832,1.8321,1.8323,1.832,1.8323,1.8325,1.8323,1.8335,1.8331,1.8333,1.8337,1.8349,1.835,1.835,1.8355,1.8357,1.8358,0,0,0,0,0,0,1.8295,1.8302,1.8302,1.831,1.8315,1.832,1.8324,1.8324,1.8328,1.8327,1.8328,1.8328,1.8336,1.8337,1.8333,1.8346,1.8342,1.8343,1.8345,1.8347,1.8348,1.8347,1.8328,0,0,0,0,0,1.8296,1.8302,1.8308,1.8315,1.8317,1.832,1.8323,1.8324,1.8328,1.833,1.8332,1.8336,1.8341,1.8344,1.8348,1.8356,1.8358,1.836,1.8362,1.8363,1.8363,1.837,1.8371,1.8353,1.8353,1.8353,0,0,1.8298,1.8303,1.8306,1.8315,1.8318,1.8325,1.8322,1.8328,1.8333,1.833,1.8338,1.834,1.8344,1.8352,1.8356,1.8354,1.8369,1.8364,1.8364,1.8365,1.8371,1.8372,1.8374,1.8354,1.8354,1.8353,0,0,1.8305,1.8309,1.8316,1.832,1.8327,1.8329,1.8331,1.8337,1.8338,1.8346,1.8346,1.8351,1.8359,1.8362,1.8365,1.8376,1.8375,1.8378,1.8383,1.839,1.8391,1.8392,1.8397,1.8399,1.8378,1.8378,1.8378,0,1.8306,1.8316,1.8319,1.8326,1.8331,1.8331,1.8339,1.8342,1.8349,1.8352,1.835,1.8361,1.8364,1.8374,1.8377,1.8379,1.8381,1.8377,1.8391,1.8392,1.8393,1.8398,1.84,1.8379,1.8379,1.8379,1.8379,0,1.8318,1.8325,1.833,1.8339,1.8344,1.8351,1.8355,1.8359,1.836,1.8363,1.8372,1.8375,1.8382,1.8384,1.8384,1.8395,1.8393,1.8391,1.8386,1.8395,1.84,1.8402,1.8379,1.8379,1.8379,1.8379,0,0,1.8323,1.8336,1.8338,1.8343,1.8351,1.8356,1.8364,1.8372,1.8376,1.8381,1.8388,1.8396,1.8395,1.8398,1.8399,1.8404,1.8415,1.8401,1.8401,1.8404,1.8428,1.843,1.8432,1.8414,1.8414,1.8414,1.8428,0,1.8331,1.8346,1.835,1.8363,1.837,1.8372,1.8379,1.8385,1.8388,1.8394,1.8398,1.8404,1.8401,1.8404,1.8409,1.8412,1.8419,1.8411,1.842,1.842,1.842,1.8434,1.8436,1.8449,1.843,1.843,1.843,0,1.8342,1.8351,1.8364,1.8374,1.8377,1.8383,1.8392,1.8398,1.8405,1.8407,1.8413,1.8413,1.8422,1.8417,1.8429,1.8423,1.8427,1.843,1.843,1.8431,1.8426,1.8436,1.8452,1.8455,1.8433,1.8433,1.8432,0,1.8346,1.836,1.8371,1.8375,1.8386,1.8391,1.8395,1.8402,1.8407,1.8415,1.8418,1.8426,1.843,1.8436,1.8439,1.8435,1.8451,1.8446,1.8453,1.8453,1.8456,1.8456,1.8474,1.8458,1.8458,1.8458,1.8458,0,1.8355,1.8363,1.8373,1.8379,1.839,1.8394,1.8404,1.8409,1.8415,1.8423,1.8424,1.8431,1.8435,1.8442,1.8444,1.8455,1.8456,1.8458,1.8459,1.8458,1.8458,1.8461,1.846,1.8458,1.8458,1.8458,1.8458,0,1.836,1.8367,1.8379,1.839,1.8393,1.84,1.8409,1.8415,1.842,1.8429,1.8432,1.8438,1.8447,1.8451,1.8462,1.8463,1.8476,1.8475,1.8474,1.8474,1.8481,1.8481,1.8502,1.8505,1.8487,1.8487,1.8487,0,1.8365,1.8373,1.8385,1.8391,1.8397,1.8406,1.8412,1.8417,1.8424,1.8434,1.8439,1.8449,1.8457,1.8472,1.8477,1.8485,1.8486,1.8492,1.8487,1.8487,1.8487,1.8487,1.8488,1.8493,1.8493,1.8494,1.8494,0,1.8375,1.8378,1.8388,1.8399,1.8407,1.8416,1.8424,1.8429,1.8436,1.8442,1.8453,1.8459,1.8472,1.8482,1.8491,1.8495,1.8496,1.8496,1.8498,1.8498,1.8497,1.8499,1.8477,1.8495,1.8495,1.8495,1.8495,1.8495,1.838,1.8388,1.8399,1.8409,1.8417,1.8426,1.8433,1.844,1.8449,1.8461,1.8463,1.8475,1.8483,1.8497,1.8502,1.8511,1.8509,1.8512,1.8512,1.8513,1.8514,1.8496,1.8512,1.8512,1.8512,1.8512,1.8512,0,1.839,1.8398,1.8408,1.8422,1.8431,1.8432,1.8443,1.845,1.846,1.8469,1.8478,1.8491,1.8501,1.8508,1.8519,1.8525,1.8525,1.8527,1.8527,1.8528,1.8515,1.8512,1.8527,1.8527,1.8527,1.8527,1.8527,1.8527,1.8396,1.841,1.8415,1.8432,1.844,1.8452,1.8458,1.8467,1.8474,1.8489,1.8498,1.8504,1.8512,1.8524,1.8534,1.8535,1.8539,1.8542,1.8544,1.8531,1.8529,1.8527,1.8525,1.8542,1.8542,1.8557,1.8557,1.8557]}]]